DELTA 1 DEB

Satellite information

Favourite Embed

Satellite Type and Status

DEBRISIN ORBIT

Key statistics

Satellite DELTA 1 DEB at a glance.

Uptime

17352

Days in orbit

Revolutions

≈ 14.0

Per day

Orbit

SSO

Sun Synchronous Orbit

Inclination

99.0

Latest

Satellite identification and parameters

Extended collection of information and parameters for DELTA 1 DEB.

Object identification

Identified? True

Debris? True

Object name: DELTA 1 DEB

International designator: 1978-026AX

Object number (NORAD): 12206

Object ID (CCSDS): 12206

Country: UNITED STATES OF AMERICA (US)

Current information (Y/N): Y

RCS size: SMALL

Orbital parameters

Period: 102.622 minutes

Inclination: 98.9779 deg

SMA: 7260.848 km

Apoapsis: 999.493 km

Periapsis: 765.933 km

RAAN: 1.6977 deg

Eccentricy: 0.01608349

Argument of periapsis: 160.4279 deg

Mean anomaly: 200.3157 deg

Mean motion: 14.03207046 rev/day

Mean motion (dot): 0.00001995 rev/day2

B* drag term: 0.0011661074 1/REarth

Two-line elements (TLE)

Creation date: Sept. 6, 2025, 2:09 a.m.

Reference frame: TEME

Reference center: EARTH

Epoch: Sept. 5, 2025, 8:13 p.m. UTC

TLE line 0: 0 DELTA 1 DEB

TLE line 1: 1 12206U 78026AX 25248.84263453 .00001995 00000-0 11661-2 0 9991

TLE line 2: 2 12206 98.9779 1.6977 0160835 160.4279 200.3157 14.03207046261097

Live tracking on map

Real-time ground track for satellite DELTA 1 DEB.

In-orbit conjunctions

A list of the most updated potential collisions computed for object DELTA 1 DEB.

Target Orbit TCA Probability of collision Miss distance Type
ATLAS 2AS CENTAUR R/B LEO 2025-09-05 17:32:04 0.0001202605 208.0 (m) ROCKET BODY
SCOUT X-4 R/B LEO 2025-08-29 05:18:08 0.0001115688 180.0 (m) ROCKET BODY
COSMOS 1275 DEB LEO 2024-11-11 11:30:26 0.0004770345 138.0 (m) DEBRIS
DTUSAT SSO 2024-09-22 22:32:22 0.0003292798 247.0 (m) PAYLOAD

Associated space launch

Earth observation satellite

DELTA 1 DEB was lifted into orbit during the mission ‘Delta 2910 | Landsat 3’, on board a Delta 2910 space rocket.

The launch took place on March 5, 1978, 5:54 p.m. from Space Launch Complex 2W.

For more information about the launch, click the button.

Launch to space Delta 2910 | Landsat 3
Delta 2910 | Landsat 3

Agency: N/A

Status: Launch Successful

Launch date: March 5, 1978, 5:54 p.m. UTC

Rocket: Delta 2910

Launch pad: Space Launch Complex 2W

Location: Vandenberg SFB, CA, USA

...

Latest news about this satellite

There are no fresh news available about this satellite. Check back as we update our databases every day.


Newsletter sign-up

Weekly statistics, charts and insights to help you stay on top of the space industry.